Time,TemperatureF,DewpointF,PressureIn,WindDirection,WindDirectionDegrees,WindSpeedMPH,WindSpeedGustMPH,Humidity,HourlyPrecipIn,Conditions,Clouds,dailyrainin,SoftwareType,DateUTC
2013-03-23 00:14:00,44.6,26.6,29.78,West,270,1.6,-999.0,49,-99.99,,,0.00,Acu-Link.com,2013-03-23 04:14:00,
2013-03-23 00:29:00,44.6,27.1,29.78,WSW,247,0.0,-999.0,50,-99.99,,,0.00,Acu-Link.com,2013-03-23 04:29:00,
2013-03-23 00:44:00,44.6,25.6,29.78,West,270,1.6,-999.0,47,-99.99,,,0.00,Acu-Link.com,2013-03-23 04:44:00,
2013-03-23 01:00:00,44.6,26.1,29.78,West,270,0.0,-999.0,48,-99.99,,,0.00,Acu-Link.com,2013-03-23 05:00:00,
2013-03-23 01:15:00,44.6,26.6,29.78,North,0,1.1,-999.0,49,-99.99,,,0.00,Acu-Link.com,2013-03-23 05:15:00,
2013-03-23 01:30:00,44.6,27.1,29.77,West,270,2.0,-999.0,50,-99.99,,,0.00,Acu-Link.com,2013-03-23 05:30:00,
2013-03-23 01:46:00,44.6,27.6,29.77,West,270,0.0,-999.0,51,-99.99,,,0.00,Acu-Link.com,2013-03-23 05:46:00,
2013-03-23 02:16:00,42.8,26.4,29.77,NW,315,2.0,-999.0,52,-99.99,,,0.00,Acu-Link.com,2013-03-23 06:16:00,
2013-03-23 02:32:00,42.8,27.3,29.77,NW,315,1.6,-999.0,54,-99.99,,,0.00,Acu-Link.com,2013-03-23 06:32:00,
2013-03-23 02:47:00,41.0,26.9,29.76,ENE,67,1.6,-999.0,57,-99.99,,,0.00,Acu-Link.com,2013-03-23 06:47:00,
2013-03-23 03:02:00,41.0,27.8,29.76,NNE,22,1.1,-999.0,59,-99.99,,,0.00,Acu-Link.com,2013-03-23 07:02:00,
2013-03-23 03:17:00,39.2,27.3,29.77,NNE,22,2.0,-999.0,62,-99.99,,,0.00,Acu-Link.com,2013-03-23 07:17:00,
2013-03-23 03:33:00,37.4,26.4,29.76,NE,45,0.0,-999.0,64,-99.99,,,0.00,Acu-Link.com,2013-03-23 07:33:00,
2013-03-23 03:48:00,37.4,27.1,29.76,NE,45,0.0,-999.0,66,-99.99,,,0.00,Acu-Link.com,2013-03-23 07:48:00,
2013-03-23 04:03:00,37.4,27.5,29.75,NNE,22,1.6,-999.0,67,-99.99,,,0.00,Acu-Link.com,2013-03-23 08:03:00,
2013-03-23 04:19:00,37.4,27.8,29.75,NE,45,0.0,-999.0,68,-99.99,,,0.00,Acu-Link.com,2013-03-23 08:19:00,
2013-03-23 04:34:00,37.4,28.5,29.76,NE,45,0.0,-999.0,70,-99.99,,,0.00,Acu-Link.com,2013-03-23 08:34:00,
2013-03-23 04:49:00,37.4,29.2,29.75,SE,135,0.0,-999.0,72,-99.99,,,0.00,Acu-Link.com,2013-03-23 08:49:00,
2013-03-23 05:04:00,35.6,27.5,29.75,NE,45,0.0,-999.0,72,-99.99,,,0.00,Acu-Link.com,2013-03-23 09:04:00,
2013-03-23 05:20:00,35.6,27.8,29.75,NE,45,0.0,-999.0,73,-99.99,,,0.00,Acu-Link.com,2013-03-23 09:20:00,
2013-03-23 05:35:00,35.6,28.5,29.74,NE,45,0.0,-999.0,75,-99.99,,,0.00,Acu-Link.com,2013-03-23 09:35:00,
2013-03-23 05:50:00,35.6,28.5,29.74,NE,45,0.0,-999.0,75,-99.99,,,0.00,Acu-Link.com,2013-03-23 09:50:00,
2013-03-23 06:05:00,37.4,29.6,29.74,WNW,292,0.0,-999.0,73,-99.99,,,0.00,Acu-Link.com,2013-03-23 10:05:00,
2013-03-23 06:36:00,37.4,29.2,29.76,NE,45,0.0,-999.0,72,-99.99,,,0.00,Acu-Link.com,2013-03-23 10:36:00,
2013-03-23 06:51:00,39.2,30.3,29.76,ENE,67,1.1,-999.0,70,-99.99,,,0.00,Acu-Link.com,2013-03-23 10:51:00,
2013-03-23 07:07:00,39.2,29.9,29.76,ENE,67,0.0,-999.0,69,-99.99,,,0.00,Acu-Link.com,2013-03-23 11:07:00,
2013-03-23 07:22:00,39.2,29.9,29.77,NE,45,0.0,-999.0,69,-99.99,,,0.00,Acu-Link.com,2013-03-23 11:22:00,
2013-03-23 07:37:00,39.2,30.3,29.78,NE,45,0.0,-999.0,70,-99.99,,,0.00,Acu-Link.com,2013-03-23 11:37:00,
2013-03-23 07:53:00,41.0,32.0,29.79,ENE,67,1.1,-999.0,70,-99.99,,,0.00,Acu-Link.com,2013-03-23 11:53:00,
2013-03-23 08:08:00,41.0,33.0,29.79,NE,45,0.0,-999.0,73,-99.99,,,0.00,Acu-Link.com,2013-03-23 12:08:00,
2013-03-23 08:23:00,41.0,32.7,29.79,NE,45,0.0,-999.0,72,-99.99,,,0.00,Acu-Link.com,2013-03-23 12:23:00,
2013-03-23 08:38:00,41.0,32.3,29.80,NE,45,0.0,-999.0,71,-99.99,,,0.00,Acu-Link.com,2013-03-23 12:38:00,
2013-03-23 09:09:00,42.8,34.1,29.79,ESE,112,1.1,-999.0,71,-99.99,,,0.00,Acu-Link.com,2013-03-23 13:09:00,
2013-03-23 09:24:00,42.8,33.3,29.79,NE,45,0.0,-999.0,69,-99.99,,,0.00,Acu-Link.com,2013-03-23 13:24:00,
2013-03-23 09:39:00,42.8,32.6,29.79,SSE,157,1.1,-999.0,67,-99.99,,,0.00,Acu-Link.com,2013-03-23 13:39:00,
2013-03-23 09:54:00,42.8,32.2,29.80,ESE,112,1.1,-999.0,66,-99.99,,,0.00,Acu-Link.com,2013-03-23 13:54:00,
2013-03-23 10:10:00,44.6,34.7,29.80,WSW,247,1.6,-999.0,68,-99.99,,,0.00,Acu-Link.com,2013-03-23 14:10:00,
2013-03-23 10:25:00,44.6,34.3,29.81,SSW,202,1.6,-999.0,67,-99.99,,,0.00,Acu-Link.com,2013-03-23 14:25:00,
2013-03-23 10:40:00,44.6,33.2,29.80,WSW,247,0.0,-999.0,64,-99.99,,,0.00,Acu-Link.com,2013-03-23 14:40:00,
2013-03-23 10:56:00,44.6,34.0,29.82,SW,225,1.6,-999.0,66,-99.99,,,0.00,Acu-Link.com,2013-03-23 14:56:00,
2013-03-23 11:26:00,46.4,34.5,29.83,East,90,1.6,-999.0,63,-99.99,,,0.00,Acu-Link.com,2013-03-23 15:26:00,
2013-03-23 11:42:00,44.6,33.2,29.82,SE,135,1.6,-999.0,64,-99.99,,,0.00,Acu-Link.com,2013-03-23 15:42:00,
2013-03-23 12:12:00,46.4,34.5,29.79,NNE,22,4.0,-999.0,63,-99.99,,,0.00,Acu-Link.com,2013-03-23 16:12:00,
2013-03-23 12:27:00,46.4,34.1,29.79,ESE,112,3.1,-999.0,62,-99.99,,,0.00,Acu-Link.com,2013-03-23 16:27:00,
2013-03-23 12:42:00,46.4,36.4,29.78,South,180,1.6,-999.0,68,-99.99,,,0.00,Acu-Link.com,2013-03-23 16:42:00,
2013-03-23 12:58:00,46.4,36.0,29.77,SE,135,1.1,-999.0,67,-99.99,,,0.00,Acu-Link.com,2013-03-23 16:58:00,
2013-03-23 13:13:00,46.4,35.7,29.76,South,180,2.0,-999.0,66,-99.99,,,0.00,Acu-Link.com,2013-03-23 17:13:00,
2013-03-23 13:28:00,48.2,37.0,29.76,SSE,157,1.1,-999.0,65,-99.99,,,0.00,Acu-Link.com,2013-03-23 17:28:00,
2013-03-23 13:44:00,48.2,37.0,29.77,SE,135,2.7,-999.0,65,-99.99,,,0.00,Acu-Link.com,2013-03-23 17:44:00,
2013-03-23 13:59:00,53.6,39.6,29.77,West,270,2.0,-999.0,59,-99.99,,,0.00,Acu-Link.com,2013-03-23 17:59:00,
2013-03-23 14:14:00,50.0,38.3,29.75,SSW,202,4.0,-999.0,64,-99.99,,,0.00,Acu-Link.com,2013-03-23 18:14:00,
2013-03-23 14:29:00,50.0,38.3,29.75,South,180,2.7,-999.0,64,-99.99,,,0.00,Acu-Link.com,2013-03-23 18:29:00,
2013-03-23 14:45:00,53.6,39.6,29.74,NW,315,2.0,-999.0,59,-99.99,,,0.00,Acu-Link.com,2013-03-23 18:45:00,
2013-03-23 15:00:00,51.8,40.4,29.73,SSW,202,3.1,-999.0,65,-99.99,,,0.00,Acu-Link.com,2013-03-23 19:00:00,
2013-03-23 15:15:00,50.0,38.3,29.73,SSW,202,3.1,-999.0,64,-99.99,,,0.00,Acu-Link.com,2013-03-23 19:15:00,
2013-03-23 15:30:00,51.8,39.2,29.73,South,180,2.7,-999.0,62,-99.99,,,0.00,Acu-Link.com,2013-03-23 19:30:00,
2013-03-23 15:45:00,51.8,38.8,29.72,South,180,3.1,-999.0,61,-99.99,,,0.00,Acu-Link.com,2013-03-23 19:45:00,
2013-03-23 16:16:00,53.6,40.1,29.70,NE,45,2.0,-999.0,60,-99.99,,,0.00,Acu-Link.com,2013-03-23 20:16:00,
2013-03-23 16:31:00,53.6,38.7,29.69,SSE,157,2.7,-999.0,57,-99.99,,,0.00,Acu-Link.com,2013-03-23 20:31:00,
2013-03-23 17:02:00,53.6,39.2,29.68,SSW,202,4.0,-999.0,58,-99.99,,,0.00,Acu-Link.com,2013-03-23 21:02:00,
2013-03-23 17:17:00,53.6,39.6,29.68,South,180,2.0,-999.0,59,-99.99,,,0.00,Acu-Link.com,2013-03-23 21:17:00,
2013-03-23 17:33:00,55.4,40.9,29.68,SW,225,2.0,-999.0,58,-99.99,,,0.00,Acu-Link.com,2013-03-23 21:33:00,
2013-03-23 17:48:00,55.4,40.4,29.68,South,180,3.1,-999.0,57,-99.99,,,0.00,Acu-Link.com,2013-03-23 21:48:00,
2013-03-23 18:03:00,55.4,38.6,29.67,WNW,292,2.7,-999.0,53,-99.99,,,0.00,Acu-Link.com,2013-03-23 22:03:00,
2013-03-23 18:19:00,55.4,38.6,29.67,ESE,112,2.7,-999.0,53,-99.99,,,0.00,Acu-Link.com,2013-03-23 22:19:00,
2013-03-23 18:34:00,53.6,37.4,29.68,SE,135,1.1,-999.0,54,-99.99,,,0.00,Acu-Link.com,2013-03-23 22:34:00,
2013-03-23 18:49:00,53.6,38.3,29.68,ESE,112,1.1,-999.0,56,-99.99,,,0.00,Acu-Link.com,2013-03-23 22:49:00,
2013-03-23 19:04:00,51.8,37.9,29.68,NNE,22,0.0,-999.0,59,-99.99,,,0.00,Acu-Link.com,2013-03-23 23:04:00,
2013-03-23 19:19:00,51.8,39.6,29.69,NNE,22,1.6,-999.0,63,-99.99,,,0.00,Acu-Link.com,2013-03-23 23:19:00,
2013-03-23 19:35:00,50.0,38.7,29.68,NNE,22,1.6,-999.0,65,-99.99,,,0.00,Acu-Link.com,2013-03-23 23:35:00,
2013-03-23 19:50:00,46.4,36.4,29.70,NNE,22,0.0,-999.0,68,-99.99,,,0.00,Acu-Link.com,2013-03-23 23:50:00,
2013-03-23 20:05:00,44.6,35.4,29.70,NE,45,0.0,-999.0,70,-99.99,,,0.00,Acu-Link.com,2013-03-24 00:05:00,
2013-03-23 20:20:00,44.6,36.1,29.70,NNE,22,1.6,-999.0,72,-99.99,,,0.00,Acu-Link.com,2013-03-24 00:20:00,
2013-03-23 20:36:00,44.6,36.8,29.70,North,0,0.0,-999.0,74,-99.99,,,0.00,Acu-Link.com,2013-03-24 00:36:00,
2013-03-23 21:06:00,44.6,37.2,29.70,West,270,0.0,-999.0,75,-99.99,,,0.00,Acu-Link.com,2013-03-24 01:06:00,
2013-03-23 21:22:00,44.6,36.8,29.71,SSW,202,0.0,-999.0,74,-99.99,,,0.00,Acu-Link.com,2013-03-24 01:22:00,
2013-03-23 21:37:00,46.4,38.9,29.71,South,180,2.7,-999.0,75,-99.99,,,0.00,Acu-Link.com,2013-03-24 01:37:00,
2013-03-23 21:52:00,46.4,38.9,29.71,SW,225,2.0,-999.0,75,-99.99,,,0.00,Acu-Link.com,2013-03-24 01:52:00,
2013-03-23 22:07:00,44.6,37.2,29.70,North,0,1.6,-999.0,75,-99.99,,,0.00,Acu-Link.com,2013-03-24 02:07:00,
2013-03-23 22:23:00,44.6,38.5,29.70,NNW,337,1.1,-999.0,79,-99.99,,,0.00,Acu-Link.com,2013-03-24 02:23:00,
2013-03-23 22:38:00,44.6,39.1,29.71,NW,315,0.0,-999.0,81,-99.99,,,0.00,Acu-Link.com,2013-03-24 02:38:00,
2013-03-23 22:53:00,42.8,37.7,29.70,NE,45,0.0,-999.0,82,-99.99,,,0.00,Acu-Link.com,2013-03-24 02:53:00,
2013-03-23 23:08:00,42.8,38.3,29.69,East,90,1.1,-999.0,84,-99.99,,,0.00,Acu-Link.com,2013-03-24 03:08:00,
2013-03-23 23:24:00,42.8,38.9,29.68,WNW,292,0.0,-999.0,86,-99.99,,,0.00,Acu-Link.com,2013-03-24 03:24:00,
2013-03-23 23:39:00,41.0,37.4,29.70,NNE,22,2.0,-999.0,87,-99.99,,,0.00,Acu-Link.com,2013-03-24 03:39:00,
2013-03-23 23:54:00,41.0,37.4,29.68,NE,45,0.0,-999.0,87,-99.99,,,0.00,Acu-Link.com,2013-03-24 03:54:00,